Location: Janeiro
(34.9957°N, 76.7652°W)
Time: 03:30:21
(UTC+00:00)

Cosmos 1300 Rocket - Pass Details

Date: 14 December 2019
Orbit: 601 x 627 km, 82.5° (Epoch: 17 January)

Event Time Altitude Azimuth Distance (km) Brightness Sun altitude
Rises 23:33:23 0° 356° (N) 2,858 6.9 -19.2°
Reaches altitude 10° 23:35:37 10° 359° (N) 1,950 6.0 -19.7°
Maximum altitude 23:39:54 69° 82° (E) 648 3.3 -20.5°
Drops below altitude 10° 23:44:11 10° 166° (SSE) 1,939 6.1 -21.4°
Sets 23:46:23 0° 169° (S) 2,840 7.0 -21.8°
